| time (UTC) | temp C | wind direction | speed KPH | gust KPH | rain 1hr cm | rain 24hr cm | rain mn cm | humidity % | barometer mb |
| 20260906162539 | 22 | 190 | 3.2 | 16.1 | 0.00 | 0.00 | 0.00 | 88 | 1017.8 |
| 20260906162004 | 22 | 172 | 4.8 | 16.1 | 0.00 | 0.00 | 0.00 | 88 | 1017.7 |
| 20260906161528 | 22 | 166 | 3.2 | 11.3 | 0.00 | 0.00 | 0.00 | 88 | 1017.8 |
| 20260906161006 | 22 | 156 | 0.0 | 11.3 | 0.00 | 0.00 | 0.00 | 89 | 1017.9 |
| 20260906160550 | 22 | 161 | 3.2 | 11.3 | 0.00 | 0.00 | 0.00 | 89 | 1017.9 |
| 20260906160052 | 22 | 162 | 3.2 | 8.0 | 0.00 | 0.00 | 0.00 | 90 | 1017.8 |
| 20260906155517 | 21 | 147 | 4.8 | 11.3 | 0.00 | 0.00 | 0.00 | 90 | 1017.8 |
| 20260906155059 | 21 | 130 | 4.8 | 11.3 | 0.00 | 0.00 | 0.00 | 90 | 1017.8 |
| 20260906154509 | 21 | 170 | 4.8 | 11.3 | 0.00 | 0.00 | 0.00 | 90 | 1017.8 |
| 20260906154044 | 21 | 172 | 1.6 | 11.3 | 0.00 | 0.00 | 0.00 | 90 | 1017.8 |
| 20260906153530 | 21 | 189 | 3.2 | 14.5 | 0.00 | 0.00 | 0.00 | 90 | 1017.7 |
| 20260906153057 | 21 | 179 | 4.8 | 14.5 | 0.00 | 0.00 | 0.00 | 90 | 1017.8 |
| 20260906152507 | 21 | 173 | 4.8 | 11.3 | 0.00 | 0.00 | 0.00 | 90 | 1017.9 |
| 20260906152027 | 21 | 240 | 3.2 | 9.7 | 0.00 | 0.00 | 0.00 | 91 | 1018.1 |
| 20260906151507 | 21 | 173 | 4.8 | 12.9 | 0.00 | 0.00 | 0.00 | 91 | 1018.1 |
| 20260906151051 | 21 | 176 | 4.8 | 14.5 | 0.00 | 0.00 | 0.00 | 91 | 1018.2 |
| 20260906150536 | 21 | 262 | 4.8 | 14.5 | 0.00 | 0.00 | 0.00 | 91 | 1018.1 |
| 20260906150019 | 21 | 153 | 1.6 | 11.3 | 0.00 | 0.00 | 0.00 | 92 | 1018.0 |
| 20260906145536 | 21 | 242 | 3.2 | 11.3 | 0.00 | 0.00 | 0.00 | 92 | 1018.1 |
| 20260906145011 | 21 | 252 | 1.6 | 14.5 | 0.00 | 0.00 | 0.00 | 92 | 1018.0 |
| 20260906144543 | 21 | 157 | 6.4 | 14.5 | 0.00 | 0.00 | 0.00 | 92 | 1017.9 |
| 20260906144010 | 21 | 223 | 3.2 | 11.3 | 0.00 | 0.00 | 0.00 | 92 | 1017.9 |
| 20260906143550 | 21 | 169 | 4.8 | 12.9 | 0.00 | 0.00 | 0.00 | 92 | 1017.9 |
| 20260906143021 | 21 | 196 | 4.8 | 12.9 | 0.00 | 0.00 | 0.00 | 92 | 1017.9 |
| 20260906142552 | 21 | 186 | 4.8 | 11.3 | 0.00 | 0.00 | 0.00 | 92 | 1017.8 |
| 20260906142011 | 21 | 296 | 3.2 | 14.5 | 0.00 | 0.00 | 0.00 | 92 | 1017.9 |
| 20260906141558 | 21 | 148 | 6.4 | 14.5 | 0.00 | 0.00 | 0.00 | 92 | 1017.9 |
| 20260906141031 | 21 | 150 | 3.2 | 14.5 | 0.00 | 0.00 | 0.00 | 92 | 1017.9 |
| 20260906140612 | 21 | 160 | 3.2 | 12.9 | 0.00 | 0.00 | 0.00 | 92 | 1017.8 |
| 20260906140037 | 21 | 187 | 3.2 | 11.3 | 0.00 | 0.00 | 0.00 | 92 | 1017.8 |
| 20260906135603 | 21 | 229 | 4.8 | 11.3 | 0.00 | 0.00 | 0.00 | 91 | 1017.8 |
| 20260906135012 | 21 | 188 | 1.6 | 8.0 | 0.00 | 0.00 | 0.00 | 92 | 1017.7 |
| 20260906134556 | 21 | 220 | 1.6 | 8.0 | 0.00 | 0.00 | 0.00 | 92 | 1017.7 |
| 20260906134018 | 21 | 257 | 3.2 | 12.9 | 0.00 | 0.00 | 0.00 | 92 | 1017.6 |
| 20260906133504 | 21 | 144 | 3.2 | 12.9 | 0.00 | 0.00 | 0.00 | 93 | 1017.6 |
| 20260906133110 | 21 | 149 | 3.2 | 11.3 | 0.00 | 0.00 | 0.00 | 94 | 1017.5 |
| 20260906132610 | 21 | 154 | 3.2 | 11.3 | 0.00 | 0.00 | 0.00 | 93 | 1017.4 |
| 20260906132020 | 21 | 146 | 3.2 | 12.9 | 0.00 | 0.00 | 0.00 | 94 | 1017.4 |
| 20260906131539 | 21 | 159 | 3.2 | 12.9 | 0.00 | 0.00 | 0.00 | 95 | 1017.3 |
| 20260906131058 | 21 | 179 | 4.8 | 12.9 | 0.00 | 0.00 | 0.00 | 95 | 1017.3 |
| 20260906130529 | 20 | 151 | 3.2 | 12.9 | 0.00 | 0.00 | 0.00 | 95 | 1017.2 |
| 20260906130105 | 20 | 153 | 1.6 | 8.0 | 0.00 | 0.00 | 0.00 | 96 | 1017.2 |
| 20260906125523 | 20 | 219 | 1.6 | 6.4 | 0.00 | 0.00 | 0.00 | 96 | 1017.1 |
| 20260906125043 | 20 | 190 | 0.0 | 8.0 | 0.00 | 0.00 | 0.00 | 96 | 1017.1 |
| 20260906124602 | 20 | 179 | 0.0 | 8.0 | 0.00 | 0.00 | 0.00 | 96 | 1017.0 |
| 20260906124016 | 20 | 161 | 0.0 | 6.4 | 0.00 | 0.00 | 0.00 | 96 | 1017.0 |
| 20260906123553 | 20 | 177 | 0.0 | 6.4 | 0.00 | 0.00 | 0.00 | 97 | 1017.1 |
| 20260906123026 | 20 | 172 | 0.0 | 4.8 | 0.00 | 0.00 | 0.00 | 97 | 1017.1 |
| 20260906122547 | 19 | 173 | 0.0 | 4.8 | 0.00 | 0.00 | 0.00 | 97 | 1017.1 |
| 20260906122109 | 19 | 181 | 0.0 | 0.0 | 0.00 | 0.00 | 0.00 | 96 | 1017.1 |
| 20260906121517 | 19 | 181 | 0.0 | 1.6 | 0.00 | 0.00 | 0.00 | 96 | 1017.0 |
| 20260906121103 | 19 | 182 | 0.0 | 0.0 | 0.00 | 0.00 | 0.00 | 96 | 1017.0 |
| 20260906120521 | 19 | 182 | 0.0 | 0.0 | 0.00 | 0.00 | 0.00 | 96 | 1017.1 |
| 20260906120058 | 19 | 181 | 0.0 | 0.0 | 0.00 | 0.00 | 0.00 | 96 | 1017.0 |
| 20260906115505 | 19 | 182 | 0.0 | 0.0 | 0.00 | 0.00 | 0.00 | 96 | 1016.9 |
| 20260906115026 | 19 | 182 | 0.0 | 0.0 | 0.00 | 0.00 | 0.00 | 96 | 1016.9 |
| 20260906114606 | 19 | 182 | 0.0 | 0.0 | 0.00 | 0.00 | 0.00 | 96 | 1016.9 |
| 20260906114015 | 19 | 182 | 0.0 | 1.6 | 0.00 | 0.00 | 0.00 | 95 | 1016.8 |
| 20260906113541 | 19 | 182 | 0.0 | 1.6 | 0.00 | 0.00 | 0.00 | 96 | 1016.8 |
| 20260906113029 | 19 | 181 | 0.0 | 0.0 | 0.00 | 0.00 | 0.00 | 95 | 1016.7 |
| 20260906112548 | 19 | 181 | 0.0 | 0.0 | 0.00 | 0.00 | 0.00 | 95 | 1016.7 |
| 20260906112111 | 19 | 181 | 0.0 | 0.0 | 0.00 | 0.00 | 0.00 | 95 | 1016.7 |
| 20260906111521 | 19 | 181 | 0.0 | 0.0 | 0.00 | 0.00 | 0.00 | 95 | 1016.7 |
| 20260906111041 | 19 | 181 | 0.0 | 0.0 | 0.00 | 0.00 | 0.00 | 95 | 1016.7 |
| 20260906110559 | 19 | 181 | 0.0 | 0.0 | 0.00 | 0.00 | 0.00 | 95 | 1016.7 |
| 20260906110008 | 19 | 181 | 0.0 | 0.0 | 0.00 | 0.00 | 0.00 | 95 | 1016.6 |
| 20260906105528 | 19 | 181 | 0.0 | 0.0 | 0.00 | 0.00 | 0.00 | 95 | 1016.5 |
| 20260906105049 | 19 | 181 | 0.0 | 0.0 | 0.00 | 0.00 | 0.00 | 95 | 1016.5 |
| 20260906104608 | 19 | 181 | 0.0 | 0.0 | 0.00 | 0.00 | 0.00 | 94 | 1016.5 |
| 20260906104043 | 19 | 181 | 0.0 | 0.0 | 0.00 | 0.00 | 0.00 | 94 | 1016.5 |
| 20260906103602 | 20 | 181 | 0.0 | 0.0 | 0.00 | 0.00 | 0.00 | 94 | 1016.6 |
| 20260906103018 | 20 | 181 | 0.0 | 1.6 | 0.00 | 0.00 | 0.00 | 94 | 1016.5 |
| 20260906102600 | 20 | 181 | 0.0 | 1.6 | 0.00 | 0.00 | 0.00 | 94 | 1016.5 |
| 20260906102031 | 20 | 182 | 0.0 | 3.2 | 0.00 | 0.00 | 0.00 | 94 | 1016.5 |
| 20260906101501 | 20 | 180 | 0.0 | 3.2 | 0.00 | 0.00 | 0.00 | 94 | 1016.4 |
| 20260906101024 | 20 | 161 | 0.0 | 3.2 | 0.00 | 0.00 | 0.00 | 94 | 1016.4 |
| 20260906100552 | 20 | 161 | 0.0 | 3.2 | 0.00 | 0.00 | 0.00 | 94 | 1016.4 |
| 20260906100037 | 20 | 161 | 0.0 | 3.2 | 0.00 | 0.00 | 0.00 | 94 | 1016.4 |
| 20260906095553 | 20 | 161 | 0.0 | 3.2 | 0.00 | 0.00 | 0.00 | 94 | 1016.3 |
| 20260906095025 | 20 | 157 | 0.0 | 3.2 | 0.00 | 0.00 | 0.00 | 93 | 1016.2 |
| 20260906094547 | 20 | 157 | 0.0 | 3.2 | 0.00 | 0.00 | 0.00 | 93 | 1016.1 |
| 20260906094021 | 20 | 157 | 0.0 | 1.6 | 0.00 | 0.00 | 0.00 | 93 | 1016.0 |
| 20260906093502 | 20 | 157 | 0.0 | 3.2 | 0.00 | 0.00 | 0.00 | 93 | 1016.0 |
| 20260906093032 | 20 | 157 | 0.0 | 4.8 | 0.00 | 0.00 | 0.00 | 93 | 1015.9 |
| 20260906092505 | 20 | 156 | 0.0 | 4.8 | 0.00 | 0.00 | 0.00 | 93 | 1015.8 |
| 20260906092049 | 20 | 153 | 0.0 | 4.8 | 0.00 | 0.00 | 0.00 | 93 | 1015.7 |
| 20260906091609 | 20 | 153 | 0.0 | 4.8 | 0.00 | 0.00 | 0.00 | 93 | 1015.6 |
| 20260906091020 | 20 | 131 | 1.6 | 4.8 | 0.00 | 0.00 | 0.00 | 93 | 1015.6 |
| 20260906090538 | 21 | 157 | 1.6 | 4.8 | 0.00 | 0.00 | 0.00 | 93 | 1015.6 |
| 20260906090100 | 21 | 165 | 0.0 | 8.0 | 0.00 | 0.00 | 0.00 | 92 | 1015.7 |
| 20260906085509 | 21 | 165 | 1.6 | 8.0 | 0.00 | 0.00 | 0.00 | 92 | 1015.7 |
| 20260906085031 | 21 | 167 | 1.6 | 8.0 | 0.00 | 0.00 | 0.00 | 92 | 1015.7 |
| 20260906084549 | 21 | 144 | 0.0 | 4.8 | 0.00 | 0.00 | 0.00 | 92 | 1015.7 |
| 20260906084027 | 21 | 135 | 1.6 | 6.4 | 0.00 | 0.00 | 0.00 | 92 | 1015.6 |
| 20260906083606 | 21 | 134 | 1.6 | 6.4 | 0.00 | 0.00 | 0.00 | 92 | 1015.6 |
| 20260906083050 | 21 | 159 | 1.6 | 9.7 | 0.00 | 0.00 | 0.00 | 92 | 1015.5 |
| 20260906082530 | 21 | 155 | 1.6 | 8.0 | 0.00 | 0.00 | 0.00 | 92 | 1015.3 |
| 20260906082052 | 21 | 144 | 1.6 | 9.7 | 0.00 | 0.00 | 0.00 | 91 | 1015.3 |
| 20260906081501 | 21 | 217 | 1.6 | 9.7 | 0.00 | 0.00 | 0.00 | 91 | 1015.4 |
| 20260906081045 | 21 | 146 | 0.0 | 9.7 | 0.00 | 0.00 | 0.00 | 91 | 1015.4 |
| 20260906080605 | 21 | 155 | 3.2 | 9.7 | 0.00 | 0.00 | 0.00 | 91 | 1015.4 |
| 20260906080020 | 21 | 163 | 1.6 | 8.0 | 0.00 | 0.00 | 0.00 | 91 | 1015.4 |
| 20260906075559 | 21 | 145 | 0.0 | 8.0 | 0.00 | 0.00 | 0.00 | 91 | 1015.5 |
| 20260906075033 | 21 | 132 | 3.2 | 8.0 | 0.00 | 0.00 | 0.00 | 91 | 1015.5 |
| 20260906074555 | 21 | 171 | 3.2 | 8.0 | 0.00 | 0.00 | 0.00 | 91 | 1015.5 |
| 20260906074007 | 21 | 184 | 1.6 | 8.0 | 0.00 | 0.00 | 0.00 | 91 | 1015.5 |
| 20260906073533 | 21 | 185 | 3.2 | 9.7 | 0.00 | 0.00 | 0.00 | 91 | 1015.5 |
| 20260906072557 | 21 | 174 | 3.2 | 9.7 | 0.00 | 0.00 | 0.00 | 91 | 1015.6 |
| 20260906072011 | 21 | 170 | 1.6 | 9.7 | 0.00 | 0.00 | 0.00 | 91 | 1015.7 |
| 20260906071553 | 21 | 169 | 0.0 | 4.8 | 0.00 | 0.00 | 0.00 | 91 | 1015.7 |
| 20260906071004 | 21 | 167 | 0.0 | 4.8 | 0.00 | 0.00 | 0.00 | 91 | 1015.8 |
| 20260906070523 | 21 | 168 | 0.0 | 4.8 | 0.00 | 0.00 | 0.00 | 91 | 1016.1 |
| 20260906065540 | 21 | 176 | 1.6 | 6.4 | 0.00 | 0.00 | 0.00 | 91 | 1016.1 |
| 20260906065008 | 21 | 211 | 0.0 | 4.8 | 0.00 | 0.00 | 0.00 | 91 | 1016.1 |
| 20260906064551 | 21 | 238 | 0.0 | 6.4 | 0.00 | 0.00 | 0.00 | 91 | 1016.1 |
| 20260906064001 | 21 | 295 | 0.0 | 6.4 | 0.00 | 0.00 | 0.00 | 91 | 1015.9 |
| 20260906063536 | 21 | 190 | 1.6 | 4.8 | 0.00 | 0.00 | 0.00 | 91 | 1015.9 |
| 20260906063109 | 21 | 186 | 0.0 | 4.8 | 0.00 | 0.00 | 0.00 | 91 | 1016.0 |
| 20260906062542 | 21 | 184 | 0.0 | 3.2 | 0.00 | 0.00 | 0.00 | 92 | 1016.0 |
| 20260906062034 | 21 | 184 | 0.0 | 3.2 | 0.00 | 0.00 | 0.00 | 92 | 1016.1 |
| 20260906061516 | 21 | 184 | 0.0 | 3.2 | 0.00 | 0.00 | 0.00 | 92 | 1016.0 |
| 20260906061010 | 21 | 184 | 0.0 | 4.8 | 0.00 | 0.00 | 0.00 | 92 | 1016.0 |
| 20260906060558 | 21 | 184 | 0.0 | 4.8 | 0.00 | 0.00 | 0.00 | 92 | 1016.1 |
| 20260906060034 | 21 | 218 | 0.0 | 3.2 | 0.00 | 0.00 | 0.00 | 93 | 1016.2 |
| 20260906055519 | 21 | 222 | 0.0 | 6.4 | 0.00 | 0.00 | 0.00 | 93 | 1016.1 |
| 20260906055055 | 21 | 222 | 0.0 | 6.4 | 0.00 | 0.00 | 0.00 | 94 | 1016.0 |
| 20260906054536 | 21 | 207 | 0.0 | 1.6 | 0.00 | 0.00 | 0.00 | 94 | 1015.9 |
| 20260906054002 | 21 | 207 | 0.0 | 1.6 | 0.00 | 0.00 | 0.00 | 94 | 1016.0 |
| 20260906053527 | 21 | 206 | 0.0 | 0.0 | 0.00 | 0.00 | 0.00 | 94 | 1016.0 |
| 20260906053005 | 21 | 205 | 0.0 | 0.0 | 0.00 | 0.00 | 0.00 | 94 | 1016.1 |
| 20260906052537 | 21 | 205 | 0.0 | 0.0 | 0.00 | 0.00 | 0.00 | 94 | 1016.1 |
| 20260906052017 | 21 | 205 | 0.0 | 0.0 | 0.00 | 0.00 | 0.00 | 94 | 1015.9 |
| 20260906051603 | 21 | 205 | 0.0 | 0.0 | 0.00 | 0.00 | 0.00 | 94 | 1015.9 |
| 20260906051022 | 21 | 205 | 0.0 | 0.0 | 0.00 | 0.00 | 0.00 | 94 | 1016.0 |
| 20260906050601 | 21 | 205 | 0.0 | 0.0 | 0.00 | 0.00 | 0.00 | 94 | 1016.2 |
| 20260906050037 | 21 | 205 | 0.0 | 0.0 | 0.00 | 0.00 | 0.00 | 93 | 1016.3 |
| 20260906045609 | 21 | 205 | 0.0 | 0.0 | 0.00 | 0.00 | 0.00 | 93 | 1016.3 |
| 20260906045039 | 21 | 205 | 0.0 | 0.0 | 0.00 | 0.00 | 0.00 | 93 | 1016.3 |
| 20260906044510 | 21 | 205 | 0.0 | 0.0 | 0.00 | 0.00 | 0.00 | 93 | 1016.3 |
| 20260906044004 | 21 | 205 | 0.0 | 0.0 | 0.00 | 0.00 | 0.00 | 93 | 1016.4 |
| 20260906043531 | 21 | 205 | 0.0 | 0.0 | 0.00 | 0.00 | 0.00 | 93 | 1016.4 |
| 20260906043010 | 21 | 205 | 0.0 | 0.0 | 0.00 | 0.00 | 0.00 | 93 | 1016.4 |
| 20260906042543 | 21 | 205 | 0.0 | 0.0 | 0.00 | 0.00 | 0.00 | 93 | 1016.4 |
| 20260906042108 | 21 | 205 | 0.0 | 0.0 | 0.00 | 0.00 | 0.00 | 93 | 1016.5 |
| 20260906041545 | 21 | 205 | 0.0 | 0.0 | 0.00 | 0.00 | 0.00 | 93 | 1016.5 |
| 20260906041016 | 21 | 205 | 0.0 | 0.0 | 0.00 | 0.00 | 0.00 | 93 | 1016.4 |
| 20260906040538 | 21 | 205 | 0.0 | 0.0 | 0.00 | 0.00 | 0.00 | 93 | 1016.4 |
| 20260906040003 | 21 | 205 | 0.0 | 0.0 | 0.00 | 0.00 | 0.00 | 92 | 1016.5 |
| 20260906035533 | 21 | 205 | 0.0 | 0.0 | 0.00 | 0.00 | 0.00 | 92 | 1016.4 |
| 20260906035054 | 21 | 205 | 0.0 | 0.0 | 0.00 | 0.00 | 0.00 | 92 | 1016.5 |
| 20260906034519 | 21 | 205 | 0.0 | 0.0 | 0.00 | 0.00 | 0.00 | 92 | 1016.4 |
| 20260906034047 | 21 | 205 | 0.0 | 0.0 | 0.00 | 0.00 | 0.00 | 92 | 1016.4 |
| 20260906033614 | 21 | 205 | 0.0 | 0.0 | 0.00 | 0.00 | 0.00 | 92 | 1016.4 |
| 20260906033100 | 21 | 205 | 0.0 | 0.0 | 0.00 | 0.00 | 0.00 | 92 | 1016.3 |
| 20260906032539 | 21 | 205 | 0.0 | 0.0 | 0.00 | 0.00 | 0.00 | 91 | 1016.3 |
| 20260906032056 | 22 | 205 | 0.0 | 0.0 | 0.00 | 0.00 | 0.00 | 92 | 1016.3 |
| 20260906031530 | 22 | 205 | 0.0 | 0.0 | 0.00 | 0.00 | 0.00 | 92 | 1016.2 |
| 20260906031004 | 22 | 205 | 0.0 | 0.0 | 0.00 | 0.00 | 0.00 | 91 | 1016.3 |
| 20260906030524 | 22 | 205 | 0.0 | 0.0 | 0.00 | 0.00 | 0.00 | 91 | 1016.4 |
| 20260906030107 | 22 | 205 | 0.0 | 0.0 | 0.00 | 0.00 | 0.00 | 91 | 1016.5 |
| 20260906025542 | 22 | 205 | 0.0 | 0.0 | 0.00 | 0.00 | 0.00 | 91 | 1016.4 |
| 20260906025103 | 22 | 205 | 0.0 | 0.0 | 0.00 | 0.00 | 0.00 | 92 | 1016.5 |
| 20260906024511 | 22 | 205 | 0.0 | 0.0 | 0.00 | 0.00 | 0.00 | 90 | 1016.6 |
| 20260906024034 | 22 | 205 | 0.0 | 0.0 | 0.00 | 0.00 | 0.00 | 90 | 1016.6 |
| 20260906023556 | 22 | 205 | 0.0 | 0.0 | 0.00 | 0.00 | 0.00 | 90 | 1016.5 |
| 20260906023021 | 22 | 205 | 0.0 | 0.0 | 0.00 | 0.00 | 0.00 | 89 | 1016.5 |
| 20260906022604 | 22 | 205 | 0.0 | 0.0 | 0.00 | 0.00 | 0.00 | 89 | 1016.3 |
| 20260906022017 | 22 | 205 | 0.0 | 0.0 | 0.00 | 0.00 | 0.00 | 89 | 1016.2 |
| 20260906021503 | 22 | 205 | 0.0 | 3.2 | 0.00 | 0.00 | 0.00 | 88 | 1016.1 |
| 20260906021029 | 22 | 205 | 0.0 | 3.2 | 0.00 | 0.00 | 0.00 | 88 | 1015.9 |
| 20260906020502 | 22 | 205 | 0.0 | 0.0 | 0.00 | 0.00 | 0.00 | 87 | 1015.7 |
| 20260906020037 | 23 | 205 | 0.0 | 0.0 | 0.00 | 0.00 | 0.00 | 87 | 1015.6 |
| 20260906015503 | 23 | 205 | 0.0 | 0.0 | 0.00 | 0.00 | 0.00 | 86 | 1015.4 |
| 20260906015040 | 23 | 205 | 0.0 | 0.0 | 0.00 | 0.00 | 0.00 | 86 | 1015.4 |
| 20260906014600 | 23 | 205 | 0.0 | 0.0 | 0.00 | 0.00 | 0.00 | 85 | 1015.2 |
| 20260906014010 | 23 | 205 | 0.0 | 0.0 | 0.00 | 0.00 | 0.00 | 84 | 1015.1 |
| 20260906013530 | 23 | 205 | 0.0 | 1.6 | 0.00 | 0.00 | 0.00 | 84 | 1014.9 |
| 20260906013102 | 23 | 205 | 0.0 | 4.8 | 0.00 | 0.00 | 0.00 | 84 | 1014.8 |
| 20260906012544 | 23 | 205 | 0.0 | 4.8 | 0.00 | 0.00 | 0.00 | 84 | 1014.6 |
| 20260906012104 | 24 | 183 | 1.6 | 4.8 | 0.00 | 0.00 | 0.00 | 83 | 1014.6 |
| 20260906011516 | 24 | 186 | 1.6 | 4.8 | 0.00 | 0.00 | 0.00 | 83 | 1014.4 |
| 20260906011034 | 24 | 196 | 1.6 | 3.2 | 0.00 | 0.00 | 0.00 | 82 | 1014.4 |
| 20260906010508 | 24 | 196 | 0.0 | 4.8 | 0.00 | 0.00 | 0.00 | 82 | 1014.4 |
| 20260906010033 | 25 | 196 | 1.6 | 4.8 | 0.00 | 0.00 | 0.00 | 82 | 1014.4 |
| 20260906005505 | 25 | 194 | 0.0 | 4.8 | 0.00 | 0.00 | 0.00 | 81 | 1014.4 |
| 20260906005044 | 25 | 186 | 1.6 | 6.4 | 0.00 | 0.00 | 0.00 | 81 | 1014.3 |
| 20260906004607 | 25 | 194 | 1.6 | 6.4 | 0.00 | 0.00 | 0.00 | 81 | 1014.3 |
| 20260906004023 | 25 | 204 | 1.6 | 8.0 | 0.00 | 0.00 | 0.00 | 80 | 1014.2 |
| 20260906003600 | 25 | 148 | 3.2 | 8.0 | 0.00 | 0.00 | 0.00 | 80 | 1014.2 |
| 20260906003008 | 25 | 162 | 3.2 | 8.0 | 0.00 | 0.00 | 0.00 | 79 | 1014.2 |
| 20260906002527 | 25 | 173 | 1.6 | 11.3 | 0.00 | 0.00 | 0.00 | 79 | 1014.2 |
| 20260906002002 | 25 | 142 | 3.2 | 8.0 | 0.00 | 0.00 | 0.00 | 78 | 1014.2 |
| 20260906001546 | 26 | 195 | 3.2 | 8.0 | 0.00 | 0.00 | 0.00 | 77 | 1014.0 |
| 20260906001106 | 26 | 174 | 3.2 | 11.3 | 0.00 | 0.00 | 0.00 | 77 | 1013.9 |
| 20260906000516 | 26 | 248 | 3.2 | 11.3 | 0.00 | 0.00 | 0.00 | 76 | 1013.9 |
| 20260906000051 | 26 | 247 | 1.6 | 9.7 | 0.00 | 0.00 | 0.00 | 76 | 1013.9 |
| 20260905235509 | 26 | 163 | 3.2 | 9.7 | 0.00 | 0.00 | 0.00 | 75 | 1013.7 |
| 20260905235030 | 26 | 157 | 1.6 | 8.0 | 0.00 | 0.00 | 0.00 | 75 | 1013.7 |
| 20260905234507 | 27 | 175 | 3.2 | 14.5 | 0.00 | 0.00 | 0.00 | 74 | 1013.8 |
| 20260905234002 | 27 | 199 | 3.2 | 14.5 | 0.00 | 0.00 | 0.00 | 74 | 1013.8 |
| 20260905233524 | 27 | 217 | 3.2 | 9.7 | 0.00 | 0.00 | 0.00 | 73 | 1013.9 |
| 20260905233051 | 27 | 177 | 3.2 | 9.7 | 0.00 | 0.00 | 0.00 | 73 | 1013.9 |
| 20260905232516 | 27 | 163 | 4.8 | 12.9 | 0.00 | 0.00 | 0.00 | 73 | 1013.7 |
| 20260905232036 | 27 | 147 | 3.2 | 12.9 | 0.00 | 0.00 | 0.00 | 73 | 1013.6 |
| 20260905231556 | 27 | 150 | 1.6 | 11.3 | 0.00 | 0.00 | 0.00 | 73 | 1013.6 |
| 20260905231030 | 27 | 165 | 3.2 | 16.1 | 0.00 | 0.00 | 0.00 | 73 | 1013.5 |
| 20260905230550 | 27 | 172 | 6.4 | 16.1 | 0.00 | 0.00 | 0.00 | 71 | 1013.4 |
| 20260905230020 | 27 | 192 | 4.8 | 12.9 | 0.00 | 0.00 | 0.00 | 71 | 1013.5 |
| 20260905225602 | 27 | 164 | 3.2 | 12.9 | 0.00 | 0.00 | 0.00 | 71 | 1013.4 |
| 20260905225026 | 27 | 110 | 3.2 | 11.3 | 0.00 | 0.00 | 0.00 | 71 | 1013.3 |
| 20260905224616 | 28 | 173 | 3.2 | 9.7 | 0.00 | 0.00 | 0.00 | 71 | 1013.1 |
| 20260905224025 | 28 | 150 | 4.8 | 14.5 | 0.00 | 0.00 | 0.00 | 71 | 1013.1 |
| 20260905223602 | 28 | 151 | 6.4 | 14.5 | 0.00 | 0.00 | 0.00 | 71 | 1013.1 |
| 20260905223046 | 27 | 161 | 3.2 | 11.3 | 0.00 | 0.00 | 0.00 | 71 | 1012.9 |
| 20260905222602 | 27 | 167 | 3.2 | 12.9 | 0.00 | 0.00 | 0.00 | 72 | 1012.9 |
| 20260905222012 | 27 | 152 | 4.8 | 14.5 | 0.00 | 0.00 | 0.00 | 71 | 1013.0 |
| 20260905221531 | 27 | 142 | 4.8 | 14.5 | 0.00 | 0.00 | 0.00 | 72 | 1013.0 |
| 20260905221054 | 27 | 171 | 6.4 | 12.9 | 0.00 | 0.00 | 0.00 | 72 | 1013.1 |
| 20260905220525 | 27 | 155 | 4.8 | 12.9 | 0.00 | 0.00 | 0.00 | 73 | 1013.2 |
| 20260905215520 | 27 | 148 | 4.8 | 11.3 | 0.00 | 0.00 | 0.00 | 72 | 1013.4 |
| 20260905215058 | 27 | 173 | 3.2 | 8.0 | 0.00 | 0.00 | 0.00 | 73 | 1013.4 |
| 20260905214501 | 27 | 180 | 3.2 | 8.0 | 0.00 | 0.00 | 0.00 | 72 | 1013.5 |
| 20260905214042 | 27 | 65 | 3.2 | 8.0 | 0.00 | 0.00 | 0.00 | 72 | 1013.6 |
| 20260905213602 | 27 | 137 | 1.6 | 9.7 | 0.00 | 0.00 | 0.00 | 73 | 1013.6 |
| 20260905213036 | 27 | 174 | 1.6 | 9.7 | 0.00 | 0.00 | 0.00 | 73 | 1013.6 |
| 20260905212555 | 27 | 183 | 3.2 | 9.7 | 0.00 | 0.00 | 0.00 | 72 | 1013.5 |
| 20260905212003 | 27 | 180 | 1.6 | 8.0 | 0.00 | 0.00 | 0.00 | 73 | 1013.5 |
| 20260905211546 | 28 | 203 | 1.6 | 14.5 | 0.00 | 0.00 | 0.00 | 72 | 1013.5 |
| 20260905211013 | 28 | 80 | 4.8 | 14.5 | 0.00 | 0.00 | 0.00 | 70 | 1013.5 |
| 20260905210607 | 28 | 158 | 3.2 | 12.9 | 0.00 | 0.00 | 0.00 | 71 | 1013.5 |
| 20260905210036 | 28 | 142 | 4.8 | 17.7 | 0.00 | 0.00 | 0.00 | 72 | 1013.4 |
| 20260905205601 | 28 | 115 | 4.8 | 17.7 | 0.00 | 0.00 | 0.00 | 70 | 1013.4 |
| 20260905205012 | 28 | 148 | 6.4 | 19.3 | 0.00 | 0.00 | 0.00 | 72 | 1013.4 |
| 20260905204532 | 28 | 82 | 3.2 | 19.3 | 0.00 | 0.00 | 0.00 | 74 | 1013.4 |
| 20260905204004 | 28 | 202 | 8.0 | 17.7 | 0.00 | 0.00 | 0.00 | 72 | 1013.6 |
| 20260905203552 | 28 | 163 | 4.8 | 16.1 | 0.00 | 0.00 | 0.00 | 72 | 1013.7 |
| 20260905203022 | 28 | 123 | 3.2 | 16.1 | 0.00 | 0.00 | 0.00 | 74 | 1013.9 |
| 20260905202606 | 28 | 141 | 3.2 | 14.5 | 0.00 | 0.00 | 0.00 | 75 | 1013.9 |
| 20260905202041 | 28 | 217 | 1.6 | 9.7 | 0.00 | 0.00 | 0.00 | 76 | 1014.0 |
| 20260905201510 | 28 | 161 | 4.8 | 9.7 | 0.00 | 0.00 | 0.00 | 75 | 1014.2 |
| 20260905201055 | 28 | 178 | 3.2 | 9.7 | 0.00 | 0.00 | 0.00 | 75 | 1014.2 |
| 20260905200512 | 28 | 167 | 3.2 | 14.5 | 0.00 | 0.00 | 0.00 | 76 | 1014.5 |
| 20260905200029 | 27 | 153 | 4.8 | 14.5 | 0.00 | 0.00 | 0.00 | 73 | 1014.7 |
| 20260905195509 | 27 | 144 | 4.8 | 14.5 | 0.00 | 0.00 | 0.00 | 75 | 1014.8 |
| 20260905195030 | 27 | 227 | 3.2 | 14.5 | 0.00 | 0.00 | 0.00 | 75 | 1014.8 |
| 20260905194554 | 27 | 200 | 4.8 | 12.9 | 0.00 | 0.00 | 0.00 | 76 | 1014.8 |
| 20260905194037 | 27 | 140 | 3.2 | 9.7 | 0.00 | 0.00 | 0.00 | 77 | 1014.8 |
| 20260905193557 | 27 | 151 | 3.2 | 11.3 | 0.00 | 0.00 | 0.00 | 78 | 1014.9 |
| 20260905193032 | 27 | 157 | 1.6 | 8.0 | 0.00 | 0.00 | 0.00 | 79 | 1015.0 |
| 20260905192555 | 27 | 159 | 3.2 | 8.0 | 0.00 | 0.00 | 0.00 | 78 | 1015.0 |
| 20260905192033 | 27 | 163 | 1.6 | 9.7 | 0.00 | 0.00 | 0.00 | 79 | 1015.2 |
| 20260905191516 | 26 | 182 | 3.2 | 9.7 | 0.00 | 0.00 | 0.00 | 78 | 1015.2 |
| 20260905191055 | 26 | 191 | 0.0 | 4.8 | 0.00 | 0.00 | 0.00 | 77 | 1015.2 |
| 20260905190512 | 26 | 190 | 1.6 | 4.8 | 0.00 | 0.00 | 0.00 | 78 | 1015.3 |
| 20260905190038 | 27 | 161 | 3.2 | 4.8 | 0.00 | 0.00 | 0.00 | 77 | 1015.4 |
| 20260905185501 | 27 | 196 | 0.0 | 3.2 | 0.00 | 0.00 | 0.00 | 77 | 1015.4 |
| 20260905185036 | 27 | 196 | 0.0 | 4.8 | 0.00 | 0.00 | 0.00 | 77 | 1015.4 |
| 20260905184526 | 27 | 195 | 1.6 | 8.0 | 0.00 | 0.00 | 0.00 | 76 | 1015.3 |
| 20260905184039 | 27 | 166 | 1.6 | 8.0 | 0.00 | 0.00 | 0.00 | 77 | 1015.3 |
| 20260905183531 | 27 | 184 | 1.6 | 6.4 | 0.00 | 0.00 | 0.00 | 79 | 1015.3 |
| 20260905183104 | 27 | 172 | 3.2 | 6.4 | 0.00 | 0.00 | 0.00 | 79 | 1015.3 |
| 20260905182519 | 26 | 164 | 0.0 | 8.0 | 0.00 | 0.00 | 0.00 | 78 | 1015.4 |
| 20260905182047 | 26 | 164 | 3.2 | 8.0 | 0.00 | 0.00 | 0.00 | 79 | 1015.4 |
| 20260905181524 | 26 | 240 | 3.2 | 8.0 | 0.00 | 0.00 | 0.00 | 79 | 1015.4 |
| 20260905181005 | 26 | 159 | 3.2 | 9.7 | 0.00 | 0.00 | 0.00 | 80 | 1015.5 |
| 20260905180539 | 26 | 144 | 1.6 | 9.7 | 0.00 | 0.00 | 0.00 | 80 | 1015.6 |
| 20260905180040 | 26 | 159 | 1.6 | 8.0 | 0.00 | 0.00 | 0.00 | 80 | 1015.6 |
| 20260905175527 | 26 | 174 | 4.8 | 8.0 | 0.00 | 0.00 | 0.00 | 81 | 1015.7 |
| 20260905175052 | 26 | 117 | 0.0 | 8.0 | 0.00 | 0.00 | 0.00 | 83 | 1015.7 |
| 20260905174530 | 25 | 146 | 1.6 | 8.0 | 0.00 | 0.00 | 0.00 | 83 | 1015.7 |
| 20260905174104 | 25 | 146 | 3.2 | 12.9 | 0.00 | 0.00 | 0.00 | 85 | 1015.9 |
| 20260905173531 | 25 | 157 | 1.6 | 8.0 | 0.00 | 0.00 | 0.00 | 84 | 1016.1 |
| 20260905173111 | 25 | 168 | 1.6 | 6.4 | 0.00 | 0.00 | 0.00 | 86 | 1016.2 |
| 20260905172532 | 24 | 194 | 3.2 | 8.0 | 0.00 | 0.00 | 0.00 | 87 | 1016.3 |
| 20260905172053 | 23 | 179 | 1.6 | 9.7 | 0.00 | 0.00 | 0.00 | 89 | 1016.3 |
| 20260905171530 | 23 | 161 | 3.2 | 9.7 | 0.00 | 0.00 | 0.00 | 89 | 1016.4 |
| 20260905171017 | 23 | 148 | 3.2 | 9.7 | 0.00 | 0.00 | 0.00 | 89 | 1016.5 |
| 20260905170552 | 23 | 174 | 1.6 | 8.0 | 0.00 | 0.00 | 0.00 | 89 | 1016.5 |
| 20260905170044 | 23 | 165 | 3.2 | 12.9 | 0.00 | 0.00 | 0.00 | 89 | 1016.6 |
| 20260905165530 | 23 | 132 | 3.2 | 12.9 | 0.00 | 0.00 | 0.00 | 89 | 1016.4 |
| 20260905165026 | 23 | 155 | 1.6 | 8.0 | 0.00 | 0.00 | 0.00 | 89 | 1016.5 |
| 20260905164525 | 22 | 178 | 0.0 | 8.0 | 0.00 | 0.00 | 0.00 | 89 | 1016.5 |
| 20260905164050 | 22 | 159 | 1.6 | 9.7 | 0.00 | 0.00 | 0.00 | 89 | 1016.5 |
| 20260905163545 | 22 | 153 | 3.2 | 9.7 | 0.00 | 0.00 | 0.00 | 90 | 1016.5 |
| 20260905163037 | 22 | 167 | 1.6 | 9.7 | 0.00 | 0.00 | 0.00 | 90 | 1016.6 |